Content
SEND FEEDBACK

Daily
Averages
Monthly
Summary
United States of America

CHESTERFIELD, MISSOURI


Home > North America > United States > Missouri
Elevation: 559 feet     Latitude: 38 41N     Longitude: 090 31W

WEATHER
 
SELECT A DAY
Number of Records: 208,559;   Date Range: 1/1/95 - 12/27/14
 
SHARE

PRINT THIS DATA

[ ← Previous Day ]
WEATHER ALMANAC - MAY 2, 2013
[ Next Day → ]
[ °C ]   °F
Weather ElementAverageHighLow
Temperature57.8 °F70 °F (2:51 pm)46 °F (10:51 pm)
Dewpoint50 °F59 °F (6:51 am)42.1 °F (11:51 pm)
Humidity76.3 %89 % (8:51 pm)55 % (2:51 pm)
Barometer30.12 in30.18 in (8:51 pm)30.05 in (2:51 am)
Wind Speed9.2 mph15 mph (3:51 pm)
Wind Gust23 mph (3:51 pm)
Weather ElementAverage
Visibility8 mi
Wind DirectionWSW (256.5 °)

Weather ElementTotal
Precipitation0.57 in
Heating Degree Days7 (Base 65)
Growing Degree Days8 (Base 50)
Averaged from 31 records on May 2, 2013
WEATHER CONDITIONS BREAKOUT
WIND DIRECTION BREAKOUT
WEATHER BY HOUR - MAY 2, 2013
[ °C ]   °F
Local TimeTemperatureDewpointHumidityBarometerVisibilityWind DirectionWind SpeedGust SpeedPrecipitationEventsConditions
1:51 AM66.0 °F57.0 °F73 %30.06 in10.0 miEast (90°)3.5 mphScattered Clouds
2:51 AM63.0 °F55.9 °F78 %30.05 in10.0 miEast (80°)4.6 mphScattered Clouds
3:51 AM64.0 °F57.0 °F78 %30.05 in9.0 miCalmScattered Clouds
4:51 AM63.0 °F57.0 °F81 %30.05 in9.0 miCalmScattered Clouds
5:51 AM64.0 °F57.0 °F78 %30.06 in9.0 miCalmMostly Cloudy
6:51 AM64.9 °F59.0 °F81 %30.09 in8.0 miCalmMostly Cloudy
7:51 AM64.9 °F59.0 °F81 %30.11 in8.0 miNW (320°)8.1 mphMostly Cloudy
8:51 AM63.0 °F55.9 °F78 %30.15 in10.0 miNW (320°)9.2 mph0.00 inRainLight Rain
9:12 AM60.8 °F53.6 °F77 %30.16 in10.0 miNW (310°)13.8 mph0.00 inMostly Cloudy
9:47 AM60.8 °F51.8 °F72 %30.16 in10.0 miWNW (300°)11.5 mph0.00 inMostly Cloudy
9:51 AM61.0 °F51.1 °F70 %30.14 in10.0 miWNW (300°)12.7 mph0.00 inMostly Cloudy
10:51 AM64.0 °F51.1 °F63 %30.14 in10.0 miNW (320°)10.4 mphScattered Clouds
11:51 AM66.0 °F52.0 °F60 %30.13 in10.0 miNW (310°)9.2 mph18.4 mphScattered Clouds
12:51 PM68.0 °F53.1 °F59 %30.12 in10.0 miNNW (330°)6.9 mphMostly Cloudy
1:51 PM69.1 °F53.1 °F57 %30.11 in10.0 miWNW (290°)10.4 mphScattered Clouds
2:51 PM70.0 °F53.1 °F55 %30.10 in10.0 miNW (310°)13.8 mph19.6 mphScattered Clouds
3:51 PM64.9 °F50.0 °F58 %30.09 in10.0 miNW (320°)15.0 mph23.0 mphMostly Cloudy
4:51 PM61.0 °F46.9 °F60 %30.11 in10.0 miWNW (300°)12.7 mphOvercast
5:51 PM57.0 °F48.0 °F72 %30.12 in7.0 miNW (320°)11.5 mph20.7 mph0.00 inRainLight Rain
6:51 PM54.0 °F48.0 °F80 %30.12 in7.0 miNW (310°)11.5 mph21.9 mph0.01 inRainLight Rain
7:51 PM51.1 °F46.0 °F83 %30.14 in5.0 miWNW (300°)10.4 mph21.9 mph0.03 inRainLight Rain
8:21 PM48.2 °F44.6 °F87 %30.15 in5.0 miNW (310°)12.7 mph23.0 mph0.01 inRainLight Rain
8:51 PM48.0 °F45.0 °F89 %30.18 in5.0 miWest (280°)10.4 mph0.03 inRainLight Rain
8:57 PM48.2 °F44.6 °F87 %30.17 in5.0 miNW (310°)10.4 mph0.01 inRainHeavy Rain
9:00 PM48.2 °F44.6 °F87 %30.16 in5.0 miNW (310°)10.4 mph0.05 inRainRain
9:37 PM46.4 °F42.8 °F87 %30.17 in6.0 miWNW (300°)10.4 mph0.14 inRainLight Rain
9:51 PM46.9 °F43.0 °F86 %30.17 in6.0 miWNW (300°)8.1 mph0.15 inRainLight Rain
10:18 PM46.4 °F42.8 °F87 %30.15 in5.0 miNW (320°)12.7 mph0.04 inRainLight Rain
10:51 PM46.0 °F43.0 °F89 %30.13 in5.0 miNW (320°)12.7 mph23.0 mph0.07 inRainLight Rain
11:22 PM46.4 °F42.8 °F87 %30.13 in7.0 miNNW (340°)11.5 mph0.01 inRainLight Rain
11:51 PM46.0 °F42.1 °F86 %30.12 in7.0 miNNW (330°)9.2 mph0.02 inRainLight Rain
Hourly data recorded from KSTL, located miles away from Chesterfield, Missouri







STORIES FROM OUR PARTNERS